Location: Ballingbuur
(53.0000°N, 5.7667°E)
Time: 19:35:52
(UTC+00:00)

Cosmos 1437 Rocket - Pass Details

Date: 29 November 2020
Orbit: 504 x 563 km, 81.2° (Epoch: 25 January)

Event Time Altitude Azimuth Distance (km) Brightness Sun altitude
Exits shadow 06:10:12 - 332° (NNW) 1,824 5.0 -10.6°
Reaches altitude 10° 06:10:25 10° 330° (NNW) 1,740 4.9 -10.6°
Maximum altitude 06:13:51 33° 266° (W) 875 3.4 -10.1°
Drops below altitude 10° 06:17:15 10° 201° (SSW) 1,717 5.4 -9.7°
Sets 06:19:29 0° 192° (SSW) 2,596 6.4 -9.3°
